Location: Caprauna
(44.1200°N, 7.5700°E)
Time: 09:57:21
(UTC+01:00)

ISS - Visible Passes

Search period start: 19 February 2019 00:00
Search period end: 01 March 2019 00:00
Orbit: 403 x 411 km, 51.6° (Epoch: 19 February)

Date Brightness Start Highest point End Pass type
(mag) Time Alt. Az. Time Alt. Az. Time Alt. Az.
21 Feb -0.7 06:40:10 10° SSE 06:41:48 13° SE 06:43:28 10° ESE visible
23 Feb -1.9 06:32:09 10° SSW 06:35:03 30° SE 06:37:58 10° ENE visible
24 Feb -1.1 05:41:30 10° S 05:43:42 17° SE 05:45:56 10° E visible
25 Feb -3.6 06:25:09 10° SW 06:28:23 71° SSE 06:31:39 10° ENE visible
26 Feb -2.7 05:35:38 26° S 05:36:56 38° SE 05:40:00 10° ENE visible
27 Feb -1.2 04:46:29 19° ESE 04:46:29 19° ESE 04:48:07 10° E visible
27 Feb -3.6 06:19:12 14° WSW 06:21:49 55° NNW 06:25:03 10° NE visible
28 Feb -4.0 05:29:55 70° WSW 05:30:14 90° S 05:33:31 10° ENE visible
